Temperature
17 17 17 17 17 17 17 17 17 17 17 17 16 16 16 16 16 16 16 16 16 16 16 16 16 16 16 16 16 16 16 15 15 15 15 15 15 15 15 15 14 14 14
17 17 17 17 17 17 17 17 17 17 16 16 16 16 16 16 16 16 16 16 15 15 16 16 16 16 16 16 16 16 15 15 15 15 15 15 14 14 14 14 14 14 14
17 17 17 16 16 17 17 17 17 17 16 16 16 16 16 16 16 16 16 16 15 15 16 16 16 16 15 15 15 15 15 15 15 15 14 14 14 14 14 14 14 14 14
17 16 16 16 16 16 17 16 16 17 16 16 16 16 16 16 16 16 16 15 15 15 15 15 15 15 15 15 15 15 15 15 15 14 14 13 13 13 14 14 14 14 14
16 16 16 16 16 16 16 16 16 16 16 16 16 16 16 16 16 16 15 15 15 15 15 15 15 15 15 15 15 15 15 14 14 14 13 13 13 13 13 13 13 13 13
16 16 16 16 16 16 16 16 16 16 16 16 16 16 16 16 16 15 15 15 15 15 15 15 15 15 15 15 15 14 14 14 14 13 13 13 13 13 13 13 13 13 13
15 15 16 16 16 16 16 16 16 16 16 16 16 16 16 16 15 15 15 15 15 15 15 15 15 15 15 14 14 14 14 14 14 13 13 13 13 13 12 12 12 12 12
15 15 15 15 16 16 16 16 16 16 16 16 16 16 15 15 15 15 15 15 15 14 14 14 14 14 14 14 14 14 14 14 13 13 13 12 12 12 12 12 12 12 12
15 15 15 15 15 16 16 16 16 16 16 16 16 15 15 15 15 15 15 15 14 14 14 14 14 14 14 14 14 14 14 14 13 13 12 12 12 12 12 12 11 11 11
14 15 15 15 15 15 15 15 15 15 15 15 15 15 15 15 15 15 14 14 14 14 14 14 14 14 14 14 14 14 14 13 13 12 12 12 12 12 11 11 11 11 11
14 14 14 14 15 15 15 15 15 15 15 15 15 15 15 15 14 14 14 14 14 14 14 14 14 14 14 14 14 14 13 13 13 12 12 12 12 11 11 11 11 11 10
14 14 14 14 14 15 14 15 15 15 15 15 15 14 14 14 14 14 14 14 14 14 14 13 13 13 13 13 13 13 13 13 12 12 12 12 12 11 11 11 11 10 10
14 14 14 14 14 14 14 14 14 14 14 14 14 14 14 14 14 14 14 13 13 13 13 13 13 13 13 13 13 13 13 12 12 12 12 12 11 11 11 10 10 10 10
14 14 14 14 14 14 14 14 14 14 14 14 14 14 14 14 14 14 13 13 13 13 13 13 13 13 13 13 13 12 12 12 12 12 12 11 11 11 10 10 10 10 9
14 14 14 14 14 14 14 14 14 14 14 14 14 14 14 14 14 13 13 13 13 13 13 13 13 13 13 12 12 12 12 12 12 11 11 11 11 11 10 10 9 9 9
13 14 14 14 13 14 14 14 13 13 14 14 14 14 13 13 13 13 13 13 13 13 13 13 12 12 12 12 12 12 12 12 11 11 11 10 10 10 10 10 9 9 9
13 13 13 13 13 13 13 13 13 13 13 13 13 13 13 13 13 13 13 13 13 12 12 12 12 12 12 12 12 12 11 11 11 11 10 10 10 10 10 9 9 9 9
13 13 13 13 13 13 13 13 13 13 13 13 13 13 13 13 13 13 13 13 12 12 12 12 12 12 12 11 11 11 11 11 10 10 10 10 9 9 9 9 9 9 8
13 13 13 13 13 13 13 13 13 12 12 13 13 13 13 13 13 13 12 12 12 12 12 12 12 11 11 11 11 11 11 10 10 10 9 9 9 9 9 8 8 8 8
12 12 12 12 12 12 12 12 12 12 12 12 12 12 12 12 12 12 12 12 12 12 11 11 11 11 11 11 11 11 10 10 10 9 9 9 8 8 8 8 8 8 7
12 12 12 12 12 12 12 12 12 12 12 12 12 12 12 12 12 12 12 12 12 11 11 11 11 11 11 10 10 10 10 10 9 9 9 8 8 8 8 7 7 7 7
12 12 12 12 12 12 12 12 12 12 11 11 11 11 11 11 11 11 11 11 11 11 11 11 11 10 10 10 9 9 8 8 8 9 8 8 7 7 7 7 7 6 6
11 11 11 11 11 11 11 11 11 11 11 11 11 11 11 11 11 11 11 11 11 11 11 11 10 10 10 9 9 8 8 8 7 8 8 7 7 7 7 6 6 6 6
11 11 11 11 11 11 11 11 11 11 11 11 11 11 11 11 11 11 11 11 10 10 10 10 10 10 9 9 9 8 8 7 6 6 7 7 6 6 6 6 6 6 5
10 10 11 11 11 11 11 11 11 11 11 11 11 11 10 10 10 10 10 10 10 10 10 10 9 9 9 8 8 8 7 7 6 5 5 6 6 6 6 6 5 5 5
9 10 10 10 10 10 10 10 10 10 10 10 10 10 10 10 10 10 10 10 10 10 10 9 9 9 8 8 8 7 7 6 6 5 5 5 5 5 5 5 5 5 4
Wind_Speed
10 13 16 15 17 17 17 17 17 17 16 16 16 16 16 16 15 15 15 15 16 16 16 17 17 16 16 16 16 16 16 16 16 15 15 15 15 15 14 13 11 12 14
12 15 17 16 17 18 18 18 17 17 16 16 16 16 16 16 15 15 15 15 16 16 16 16 16 16 16 16 15 15 15 15 15 14 13 14 14 14 14 14 14 12 13
14 16 18 17 18 18 18 18 18 17 16 16 16 16 15 15 15 15 15 16 16 16 16 16 16 15 15 15 15 15 14 14 13 11 10 11 13 14 14 13 13 13 12
14 16 17 18 18 18 18 18 17 17 16 16 16 16 15 15 15 15 15 16 16 15 15 15 15 14 14 14 14 14 14 13 11 8 10 11 11 13 13 12 12 12 12
14 15 16 17 18 18 18 18 17 17 16 16 16 15 15 15 15 15 15 15 15 15 15 14 14 14 14 14 14 13 12 11 9 9 10 10 10 12 12 12 12 12 12
14 15 17 17 18 18 17 17 16 16 16 16 15 15 15 15 15 15 15 15 15 14 14 14 14 14 13 13 13 12 11 9 7 9 9 10 10 11 11 12 11 12 12
14 14 17 16 17 17 17 17 16 15 15 15 15 15 15 15 15 15 15 14 14 14 13 13 13 13 13 13 12 12 11 8 8 9 9 10 11 11 12 12 12 12 12
13 14 16 16 17 17 16 16 16 15 15 15 15 15 15 15 15 14 14 14 14 13 13 12 12 12 12 12 11 11 9 7 8 9 9 10 11 11 11 11 12 12 11
13 13 14 15 16 16 16 16 16 15 15 14 15 15 15 14 14 14 14 13 13 13 12 12 12 12 12 11 11 11 10 7 7 8 8 9 10 10 11 11 11 11 11
12 12 12 14 14 15 15 15 15 15 15 15 15 15 15 14 13 13 13 13 13 12 12 12 11 11 11 11 10 9 7 5 7 7 7 9 10 10 10 10 11 11 11
11 11 11 12 13 13 14 15 15 14 14 15 14 14 12 11 11 11 12 13 12 12 11 11 11 11 10 10 9 7 4 5 6 6 7 9 9 10 10 10 10 11 11
13 12 10 11 11 13 12 12 11 11 12 11 11 11 9 9 9 10 12 12 12 12 11 10 9 8 6 6 6 4 4 5 5 6 8 9 9 9 10 10 10 10 10
13 11 10 10 11 12 10 9 9 9 9 10 10 9 9 8 8 8 8 8 8 8 7 7 6 5 5 5 4 4 4 4 5 5 7 9 8 9 9 9 10 10 10
12 12 10 10 10 11 10 9 8 8 8 8 8 9 8 7 6 6 5 6 5 4 5 4 4 5 5 5 5 4 4 4 4 4 7 9 8 9 9 9 9 10 10
12 12 11 10 9 10 9 8 8 8 8 8 8 8 7 7 6 6 5 5 5 4 4 4 4 4 4 4 4 4 4 4 4 4 5 8 8 8 8 9 9 10 10
12 12 11 10 10 10 9 8 7 7 8 8 7 7 7 7 6 6 5 5 4 4 4 4 4 3 3 3 3 3 3 3 3 3 3 5 7 8 8 9 10 10 11
12 12 11 10 10 10 10 9 7 7 8 7 7 7 7 7 7 6 5 4 4 4 4 4 4 3 2 2 2 2 2 2 2 2 3 3 4 6 8 9 9 10 11
11 11 11 9 10 10 9 8 7 7 7 6 7 7 7 7 7 6 5 4 4 4 4 3 3 2 2 1 1 1 1 1 1 2 2 3 3 4 5 7 9 10 11
10 11 10 10 10 9 8 7 7 7 6 6 6 6 6 7 6 6 4 4 5 4 3 3 2 1 1 1 0 0 1 1 0 0 1 2 3 4 4 5 7 8 10
8 9 10 10 10 9 7 6 6 6 5 5 5 6 7 6 6 6 5 5 4 3 2 2 2 2 1 0 0 1 1 1 1 1 1 2 3 4 5 6 6 7 8
8 9 10 10 10 8 7 6 6 5 4 4 4 6 6 6 6 6 5 5 4 3 3 3 2 2 1 1 1 1 1 2 2 2 2 2 3 4 5 6 6 7 7
8 10 10 10 10 9 7 6 4 4 4 4 4 5 5 6 6 5 5 4 4 3 3 3 2 1 1 0 1 1 2 2 2 3 2 3 4 4 5 6 7 8 8
8 9 9 9 9 9 8 6 5 4 3 3 4 3 4 5 6 5 5 5 4 3 3 3 3 2 1 1 1 1 2 2 2 2 3 3 4 4 5 6 7 8 9
7 7 9 9 9 9 10 9 9 7 6 6 5 4 5 5 5 5 5 5 4 3 3 3 3 2 2 2 1 1 2 2 2 2 2 3 4 5 6 6 7 7 8
7 7 7 8 9 9 9 10 9 8 6 5 5 6 5 5 5 5 5 5 4 4 3 3 3 2 2 2 1 1 1 2 3 3 4 5 5 4 5 6 6 7 8
4 5 7 8 8 9 9 9 9 9 8 8 8 7 5 4 4 5 6 5 5 4 4 4 3 3 3 2 2 2 1 2 2 3 5 6 6 5 6 5 5 6 8
Wind_Direction
158 156 150 148 145 142 139 136 132 129 127 124 121 118 114 110 108 106 104 101 98 95 93 91 89 86 84 81 80 78 76 75 73 71 68 66 64 63 60 52 51 58 53
152 154 150 149 146 142 140 135 132 130 128 126 124 121 117 114 111 108 105 102 99 96 93 90 89 87 85 83 81 80 78 76 74 72 71 70 64 61 59 54 49 52 50
148 150 152 148 145 141 138 135 132 131 129 127 125 123 120 117 114 111 107 104 100 95 93 91 90 88 86 84 82 81 79 77 74 72 73 70 67 60 57 55 52 50 47
148 149 152 145 144 142 139 136 134 132 130 129 126 124 121 118 115 112 109 106 101 97 94 92 90 88 87 85 84 82 79 76 70 65 67 64 63 58 54 52 50 47 44
147 147 143 144 143 142 140 138 136 134 132 129 127 124 121 119 115 112 109 106 103 99 95 93 91 89 88 87 85 83 80 76 72 67 65 61 60 56 52 51 48 45 42
148 145 141 142 142 141 140 138 137 136 134 131 128 126 123 120 116 113 110 107 105 101 98 96 94 92 89 87 85 83 80 75 74 67 61 56 57 54 52 50 46 43 39
149 145 143 142 141 138 138 136 135 136 136 134 131 128 125 121 118 116 112 109 107 104 101 98 96 94 91 88 85 82 77 67 68 66 61 58 56 53 51 49 45 41 38
148 146 144 141 139 137 135 134 132 131 134 136 133 130 127 123 121 118 114 111 109 106 103 100 97 95 92 89 85 80 73 65 72 67 62 59 53 49 49 45 41 37 32
148 147 147 147 143 137 134 133 132 131 129 129 129 128 127 125 122 120 116 113 111 107 104 102 99 96 93 89 84 79 72 60 67 65 59 55 51 48 47 43 39 35 30
151 150 150 149 149 146 140 133 131 130 128 126 124 122 121 123 123 121 118 114 112 109 106 103 100 97 93 89 85 81 75 72 67 64 58 55 49 45 44 40 36 32 28
155 156 153 151 151 148 144 137 133 127 126 125 122 121 126 127 126 122 113 113 112 109 107 104 101 99 98 95 87 81 77 71 67 62 57 51 46 43 41 36 32 28 25
163 161 155 152 152 147 143 144 142 137 137 136 135 134 128 125 120 118 110 107 108 108 108 104 106 107 104 99 94 89 77 71 70 69 60 48 43 40 37 32 27 23 18
164 160 158 154 155 147 144 144 143 141 139 138 139 137 130 124 123 123 122 117 113 114 112 114 115 102 94 90 86 80 75 70 70 70 58 47 42 37 33 28 23 19 14
166 164 159 154 155 149 144 144 143 141 141 140 140 141 136 130 130 129 126 124 119 110 111 113 103 101 99 96 90 86 83 77 72 70 58 45 38 33 29 24 18 14 10
168 167 161 156 158 151 144 146 146 145 144 143 141 143 143 139 137 135 129 125 121 116 112 106 109 105 99 92 89 86 83 80 76 72 67 49 36 31 26 19 13 10 5
172 167 161 163 162 154 150 151 149 147 145 146 143 145 146 142 140 139 133 127 121 120 114 110 104 106 102 96 94 88 84 83 77 70 63 57 43 31 24 16 10 5 1
175 168 165 167 164 158 153 151 147 148 149 146 143 145 144 140 141 138 132 129 124 126 123 113 106 98 99 109 110 98 85 77 73 63 53 40 33 32 23 12 6 0 357
174 170 166 165 164 159 153 149 145 148 147 145 144 145 143 140 141 138 133 129 131 130 128 123 118 118 109 98 102 106 109 107 80 49 51 30 13 3 9 7 359 355 352
176 170 166 166 163 157 149 143 139 141 141 145 146 144 145 143 145 141 137 134 138 136 135 131 126 123 121 103 122 219 215 198 160 84 37 10 2 350 342 344 344 345 344
173 169 168 165 162 151 142 137 136 135 136 141 144 144 147 148 150 143 139 138 142 140 142 142 129 109 97 92 210 239 239 231 223 224 317 337 341 335 333 330 328 330 333
168 172 169 169 164 157 155 157 157 158 154 149 144 147 152 152 153 149 146 147 152 155 155 149 138 121 81 44 234 256 226 222 233 250 278 300 323 326 323 323 324 326 323
176 176 175 175 170 169 168 166 162 152 152 150 144 149 157 157 156 158 157 157 163 163 160 159 150 150 93 50 297 274 271 226 219 251 257 277 303 316 316 320 321 323 323
185 183 182 179 173 172 165 152 138 132 133 156 166 170 167 167 163 164 165 162 167 172 176 179 179 178 175 157 338 300 288 290 305 238 259 273 295 303 305 313 313 317 320
194 190 185 178 176 173 170 169 169 176 181 186 181 179 171 172 170 168 168 169 172 178 181 186 198 208 202 204 192 305 305 314 297 291 258 278 302 300 302 304 307 310 314
192 187 185 181 179 177 177 177 179 184 182 171 168 171 175 172 173 173 176 178 180 181 185 187 193 210 219 225 219 241 259 273 278 282 289 301 301 293 299 299 303 307 307
184 183 180 180 180 180 180 180 184 183 176 173 173 175 179 178 179 180 183 185 183 184 189 191 195 207 217 222 229 232 254 265 284 280 286 299 302 301 298 292 296 307 310
Height
1523 1526 1527 1530 1532 1534 1535 1537 1538 1539 1540 1541 1541 1542 1543 1543 1544 1544 1544 1545 1545 1545 1545 1545 1544 1544 1544 1544 1543 1543 1543 1542 1542 1541 1541 1541 1540 1540 1539 1538 1538 1537 1536
1522 1525 1527 1530 1533 1534 1536 1537 1539 1540 1541 1542 1543 1543 1544 1544 1545 1545 1546 1546 1546 1546 1546 1546 1546 1546 1545 1545 1545 1545 1544 1544 1543 1543 1542 1542 1541 1541 1540 1539 1538 1538 1537
1522 1525 1528 1530 1533 1535 1537 1538 1540 1541 1542 1543 1544 1545 1545 1546 1546 1547 1547 1547 1548 1548 1548 1547 1547 1547 1547 1546 1546 1546 1545 1545 1545 1544 1544 1544 1543 1542 1541 1540 1539 1538 1537
1522 1525 1528 1530 1533 1535 1537 1539 1541 1542 1543 1544 1545 1546 1547 1547 1548 1548 1549 1549 1549 1549 1549 1549 1549 1548 1548 1548 1547 1547 1547 1546 1546 1546 1546 1545 1544 1543 1542 1541 1540 1539 1537
1523 1525 1528 1531 1533 1536 1538 1540 1541 1543 1544 1545 1546 1547 1548 1548 1549 1549 1550 1550 1550 1550 1550 1550 1550 1549 1549 1549 1548 1548 1548 1547 1547 1547 1546 1546 1545 1544 1543 1542 1540 1539 1538
1523 1526 1528 1531 1534 1536 1538 1540 1542 1544 1545 1546 1547 1548 1549 1550 1550 1550 1551 1551 1551 1551 1551 1551 1551 1551 1550 1550 1550 1549 1549 1549 1548 1548 1547 1547 1546 1544 1543 1542 1541 1539 1538
1524 1526 1529 1531 1534 1537 1539 1541 1543 1544 1546 1547 1548 1549 1550 1550 1551 1551 1552 1552 1552 1552 1552 1552 1552 1552 1551 1551 1551 1550 1550 1549 1549 1549 1548 1547 1546 1545 1544 1542 1541 1539 1538
1524 1526 1529 1532 1534 1537 1539 1541 1543 1545 1546 1548 1549 1550 1551 1551 1552 1552 1552 1553 1553 1553 1553 1553 1553 1553 1552 1552 1551 1551 1551 1550 1550 1549 1548 1548 1546 1545 1544 1542 1541 1539 1537
1524 1527 1529 1532 1535 1537 1539 1541 1543 1545 1547 1548 1549 1550 1551 1552 1553 1553 1553 1553 1554 1554 1554 1554 1554 1553 1553 1552 1552 1552 1551 1551 1551 1550 1549 1548 1546 1545 1544 1542 1541 1539 1537
1524 1527 1529 1532 1534 1537 1539 1541 1543 1545 1547 1548 1550 1551 1552 1553 1553 1554 1554 1554 1554 1555 1555 1555 1554 1554 1554 1553 1553 1552 1552 1551 1551 1550 1549 1548 1547 1545 1544 1542 1540 1539 1537
1524 1526 1529 1531 1534 1536 1539 1541 1543 1545 1547 1549 1550 1551 1552 1553 1554 1554 1554 1555 1555 1555 1555 1555 1555 1555 1554 1554 1553 1553 1552 1552 1551 1550 1549 1548 1547 1545 1544 1542 1540 1538 1536
1522 1525 1528 1530 1533 1535 1538 1540 1543 1545 1547 1548 1550 1551 1552 1553 1554 1554 1555 1555 1555 1556 1556 1555 1555 1555 1555 1554 1554 1553 1553 1552 1551 1550 1549 1548 1546 1545 1543 1541 1539 1537 1535
1521 1524 1527 1529 1532 1534 1537 1539 1542 1544 1546 1548 1549 1551 1552 1553 1554 1554 1555 1555 1555 1556 1556 1556 1556 1555 1555 1554 1554 1553 1552 1552 1551 1550 1549 1547 1546 1544 1543 1541 1539 1537 1534
1520 1522 1525 1528 1531 1533 1536 1539 1541 1543 1545 1547 1548 1550 1551 1552 1553 1554 1554 1555 1555 1555 1555 1556 1555 1555 1555 1554 1554 1553 1552 1552 1551 1550 1548 1547 1545 1544 1542 1540 1538 1536 1533
1519 1521 1524 1527 1529 1532 1535 1538 1540 1542 1544 1546 1548 1549 1551 1552 1553 1553 1554 1554 1555 1555 1555 1555 1555 1555 1554 1554 1553 1553 1552 1551 1550 1549 1548 1546 1545 1543 1541 1539 1537 1534 1532
1517 1520 1523 1525 1528 1531 1534 1537 1539 1542 1544 1545 1547 1548 1550 1551 1552 1553 1553 1554 1554 1554 1555 1555 1554 1554 1554 1553 1553 1552 1551 1551 1550 1548 1547 1546 1544 1542 1540 1537 1535 1533 1530
1516 1518 1521 1524 1526 1529 1532 1536 1538 1541 1543 1544 1546 1548 1549 1550 1552 1552 1553 1553 1553 1554 1554 1554 1553 1553 1553 1553 1552 1551 1550 1549 1548 1547 1546 1545 1543 1541 1538 1536 1534 1531 1529
1514 1517 1520 1523 1525 1528 1531 1534 1536 1539 1541 1543 1545 1547 1548 1549 1551 1552 1552 1553 1553 1553 1553 1553 1553 1552 1552 1552 1551 1550 1549 1548 1547 1546 1545 1543 1541 1539 1537 1534 1532 1529 1527
1512 1515 1518 1521 1524 1527 1529 1532 1535 1538 1540 1542 1544 1545 1547 1548 1549 1550 1551 1551 1552 1552 1552 1552 1552 1551 1551 1550 1550 1549 1548 1547 1545 1544 1543 1541 1540 1538 1535 1533 1530 1527 1524
1510 1513 1516 1519 1522 1525 1528 1530 1533 1536 1538 1540 1542 1544 1546 1547 1548 1549 1550 1550 1551 1551 1551 1551 1551 1550 1550 1549 1548 1547 1546 1545 1544 1543 1541 1539 1538 1536 1533 1531 1528 1525 1522
1507 1510 1513 1516 1519 1522 1525 1528 1531 1533 1536 1539 1541 1542 1544 1545 1546 1547 1548 1549 1549 1549 1550 1550 1549 1549 1548 1547 1547 1546 1544 1543 1542 1541 1539 1537 1536 1534 1531 1529 1526 1523 1520
1505 1508 1511 1513 1516 1520 1523 1526 1529 1532 1534 1537 1539 1540 1542 1543 1544 1546 1547 1547 1548 1548 1548 1548 1548 1547 1546 1546 1546 1545 1544 1543 1540 1539 1537 1535 1533 1531 1529 1526 1524 1521 1518
1502 1505 1508 1511 1514 1517 1521 1524 1527 1530 1532 1535 1536 1538 1540 1541 1542 1543 1545 1545 1546 1546 1546 1546 1546 1545 1545 1544 1544 1544 1544 1542 1539 1537 1535 1533 1531 1529 1527 1524 1521 1519 1515
1500 1503 1506 1509 1512 1515 1518 1522 1524 1526 1529 1531 1534 1536 1538 1539 1540 1541 1542 1543 1543 1544 1544 1544 1544 1544 1543 1543 1542 1541 1541 1540 1538 1535 1533 1531 1529 1527 1524 1522 1519 1516 1513
1498 1500 1503 1506 1509 1512 1516 1519 1522 1525 1527 1529 1531 1533 1535 1536 1538 1539 1540 1540 1541 1541 1542 1542 1542 1542 1541 1541 1540 1539 1538 1537 1536 1534 1531 1529 1526 1524 1521 1519 1516 1513 1510
1495 1498 1501 1503 1506 1510 1513 1516 1518 1521 1524 1526 1528 1530 1532 1533 1534 1536 1537 1538 1538 1539 1539 1539 1539 1539 1539 1538 1537 1536 1536 1535 1534 1532 1529 1526 1523 1521 1518 1516 1513 1510 1507